1376092829811,18.5987
1376092889811,18.5858
1376092949811,18.6611
1376093009811,18.6192
1376093069811,18.6603
1376093129811,18.6228
1376093189811,18.6396
1376093249811,18.6752
1376093309811,18.6883
1376093369811,18.7536
1376093429811,18.6640
1376093489811,18.6952
1376093549811,18.6700
1376093609811,18.7022
1376093669811,18.6595
1376093729811,18.6887
1376093789811,18.6905
1376093849811,18.7017
1376093909811,18.6411
1376093969811,18.7440
1376094029811,18.7042
1376094089811,18.7537
1376094149811,18.6610
1376094209811,18.7120
1376094269811,18.7422
1376094329811,18.6559
1376094389811,18.6688
1376094449811,18.7272
1376094509811,18.7486
1376094569811,18.6570
1376094629811,18.7026
1376094689811,18.6585
1376094749811,18.6221
1376094809811,18.6860
1376094869811,18.6693
1376094929811,18.7237
1376094989811,18.7022
1376095049811,18.6729
1376095109811,18.7252
1376095169811,18.6862
1376095229811,18.9123
1376095289811,18.6602
1376095349811,18.6466
1376095409811,18.6343
1376095469811,18.6597
1376095529811,18.6445
1376095589811,18.6668
1376095649811,18.6641
1376095709811,18.5805
1376095769811,18.6514
1376095829811,18.6392
1376095889811,18.6809
1376095949811,18.6714
1376096009811,18.6911
1376096069811,18.7119
1376096129811,18.6878
1376096189811,18.7016
1376096249811,18.7344
1376096309811,18.6238
1376096369811,18.6795
1376096429821,18.6918
1376096489821,18.6511
1376096549821,18.6284
1376096609821,18.6746
1376096669821,18.6727
1376096729821,18.6399
1376096789821,18.6712
1376096849821,18.6471
1376096909821,18.6380
1376096969821,18.7085
1376097029821,18.7389
1376097089821,18.6306
1376097149821,18.6496
1376097209821,18.6560
1376097269821,18.7260
1376097329821,18.6818
1376097389821,18.7227
1376097449821,18.7313
1376097509821,18.7007
1376097569821,18.7371
1376097629821,18.8323
1376097689821,18.7060
1376097749821,18.7985
1376097809821,18.6909
1376097869821,18.7276
1376097929821,18.6257
1376097989821,18.6904
1376098049821,18.7052
1376098109821,18.7451
1376098169821,18.6582
1376098229821,18.7000
1376098289821,18.6030
1376098349821,18.6818
1376098409821,18.6542
1376098469821,18.6346
1376098529821,18.6668
1376098589821,18.6521
1376098649821,18.6673
1376098709821,18.7310
1376098769821,18.6261
1376098829821,18.6826
1376098889821,18.6131
1376098949821,18.6267
1376099009821,18.6141
1376099069821,18.5921
1376099129821,18.6456
1376099189821,18.6936
1376099249821,18.6249
1376099309821,18.6801
1376099369821,18.6832
1376099429821,18.6599
1376099489821,18.6201
1376099549821,18.6613
1376099609821,18.6499
1376099669821,18.6870
1376099729821,18.5697
1376099789821,18.6644
1376099849821,18.6899
1376099909821,18.5848
1376099969821,18.6799
1376100029832,18.6205
1376100089832,18.6623
1376100149832,18.6235
1376100209832,18.6333
1376100269832,18.6155
1376100329832,18.6656
1376100389832,18.6304
1376100449832,18.6161
1376100509832,18.7050
1376100569832,18.6286
1376100629832,18.6555
1376100689832,18.6832
1376100749832,18.6867
1376100809832,18.6108
1376100869832,18.6741
1376100929832,18.5938
1376100989832,18.6449
1376101049832,18.6617
1376101109832,18.6826
1376101169832,18.6715
1376101229832,18.6222
1376101289832,18.6055
1376101349832,18.6338
1376101409832,18.6256
1376101469832,18.6285
1376101529832,18.5994
1376101589832,18.6494
1376101649832,18.6402
1376101709832,18.6632
1376101769832,18.6057
1376101829832,18.6336
1376101889832,18.5926
1376101949832,18.6430
1376102009832,18.6348
1376102069832,18.6580
1376102129832,18.6576
1376102189832,18.5960
1376102249832,18.6313
1376102309832,18.6325
1376102369832,18.6254
1376102429832,18.7271
1376102489832,18.6806
1376102549832,18.6419
1376102609832,18.6554
1376102669832,18.6783
1376102729832,18.7429
1376102789832,18.7883
1376102849832,18.7705
1376102909832,18.8282
1376102969832,18.8677
1376103029832,18.7732
1376103089832,18.7484
1376103149832,18.7386
1376103209832,18.7405
1376103269832,18.7001
1376103329832,18.7921
1376103389832,18.8113
1376103449832,18.7381
1376103509832,18.7618
1376103569832,18.7102
1376103629841,18.6842
1376103689841,18.7967
1376103749841,18.7800
1376103809841,18.7820
1376103869841,18.7414
1376103929841,18.7593
1376103989841,18.7650
1376104049841,18.6989
1376104109841,18.7187
1376104169841,18.7821
1376104229841,18.7531
1376104289841,18.7388
1376104349842,18.7220
1376104409841,18.7273
1376104469841,18.6729
1376104529841,18.7021
1376104589841,18.7304
1376104649841,18.6776
1376104709841,18.6410
1376104769841,18.6950
1376104829841,18.6864
1376104889841,18.6996
1376104949841,18.9138
1376105009841,18.6567
1376105069841,18.7188
1376105129841,18.6940
1376105189841,18.7220
1376105249841,18.6535
1376105309841,18.6595
1376105369841,18.6404
1376105429841,18.6647
1376105489841,18.6426
1376105549841,18.6592
1376105609841,18.6897
1376105669841,18.6761
1376105729841,18.7526
1376105789841,18.6605
1376105849841,18.6786
1376105909841,18.7039
1376105969841,18.6889
1376106029841,18.6557
1376106089841,18.6283
1376106149841,18.7476
1376106209841,18.6496
1376106269841,18.6391
1376106329841,18.6640
1376106389841,18.6282
1376106449841,18.6393
1376106509841,18.6590
1376106569841,18.6462
1376106629841,18.6301
1376106689841,18.6021
1376106749841,18.5989
1376106809841,18.6503
1376106869841,18.6283
1376106929841,18.6242
1376106989841,18.6852
1376107049842,18.6641
1376107109841,18.5858
1376107169841,18.5942
1376107229851,18.5929
1376107289851,18.6347
1376107349851,18.6306
1376107409851,18.6245
1376107469851,18.6258
1376107529851,18.6325
1376107589851,18.5653
1376107649851,18.5463
1376107709851,18.5874
1376107769851,18.5648
1376107829851,18.5736
1376107889851,18.6082
1376107949851,18.6775
1376108009851,18.6705
1376108069851,18.5997
1376108129851,18.6556
1376108189851,18.6798
1376108249851,18.6504
1376108309851,18.6975
1376108369851,18.6308
1376108429851,18.6632
1376108489851,18.6660
1376108549851,18.6774
1376108609851,18.6540
1376108669851,18.6317
1376108729851,18.6225
1376108789851,18.6294
1376108849851,18.6757
1376108909851,18.6513
1376108969851,18.6023
1376109029851,18.5946
1376109089851,18.6462
1376109149851,18.6968
1376109209851,18.6447
1376109269851,18.7118
1376109329851,18.6809
1376109389851,18.6918
1376109449851,18.6993
1376109509851,18.6238
1376109569851,18.6614
1376109629851,18.7681
1376109689851,18.6271
1376109749851,18.6181
1376109809851,18.6458
1376109869851,18.5658
1376109929851,18.6262
1376109989851,18.6366
1376110049851,18.6378
1376110109851,18.6399
1376110169851,18.6082
1376110229851,18.6466
1376110289851,18.6227
1376110349851,18.6308
1376110409851,18.6252
1376110469851,18.6113
1376110529851,18.6131
1376110589851,18.6511
1376110649851,18.6322
1376110709851,18.6494
1376110769851,18.6304
1376110829861,18.6705
1376110889861,18.6770
1376110949861,18.6446
1376111009861,18.7040
1376111069861,18.6781
1376111129861,18.6809
1376111189861,18.6811
1376111249861,18.6867
1376111309861,18.6889
1376111369861,18.7132
1376111429861,18.6915
1376111489861,18.6693
1376111549861,18.6609
1376111609861,18.6092
1376111669861,18.6545
1376111729861,18.6422
1376111789861,18.7417
1376111849861,18.7114
1376111909861,18.6707
1376111969861,18.6775
1376112029861,18.6873
1376112089861,18.6885
1376112149861,18.6410
1376112209861,18.7461
1376112269861,18.5826
1376112329861,18.5790
1376112389861,18.6548
1376112449861,18.6532
1376112509861,18.6300
1376112569861,18.6126
1376112629861,18.5399
1376112689861,18.6368
1376112749861,18.6705
1376112809861,18.6265
1376112869861,18.6872
1376112929861,18.6668
1376112989861,18.6339
1376113049861,18.6466
1376113109861,18.6561
1376113169861,18.5622
1376113229861,18.6316
1376113289861,18.6707
1376113349861,18.6360
1376113409861,18.6343
1376113469861,18.6463
1376113529861,18.6635
1376113589861,18.6215
1376113649861,18.6880
1376113709861,18.6570
1376113769861,18.6598
1376113829861,18.6860
1376113889861,18.7244
1376113949861,18.6693
1376114009861,18.6514
1376114069861,18.6678
1376114129861,18.6504
1376114189861,18.6115
1376114249861,18.6975
1376114309861,18.6841
1376114369861,18.6615
1376114429871,18.6195
1376114489871,18.6733
1376114549871,18.6259
1376114609871,18.6239
1376114669871,18.6637
1376114729871,18.6551
1376114789871,18.5576
1376114849871,18.5858
1376114909871,18.6105
1376114969871,18.6238
1376115029871,18.6471
1376115089871,18.5483
1376115149871,18.5950
1376115209871,18.5939
1376115269871,18.5947
1376115329871,18.5857
1376115389871,18.6110
1376115449871,18.6166
1376115509871,18.6009
1376115569871,18.5427
1376115629871,18.7085
1376115689871,18.6412
1376115749871,18.6642
1376115809871,18.6268
1376115869871,18.5784
1376115929871,18.5854
1376115989871,18.6161
1376116049871,18.6057
1376116109871,18.6686
1376116169871,18.5957
1376116229871,18.5378
1376116289871,18.5920
1376116349871,18.6064
1376116409871,18.6525
1376116469871,18.6400
1376116529871,18.5587
1376116589871,18.6163
1376116649871,18.5998
1376116709871,18.6193
1376116769871,18.5869
1376116829871,18.6003
1376116889871,18.6149
1376116949871,18.6085
1376117009871,18.6455
1376117069871,18.6170
1376117129871,18.6695
1376117189871,18.6547
1376117249871,18.6156
1376117309871,18.6546
1376117369871,18.5726
1376117429871,18.6501
1376117489871,18.6381
1376117549871,18.6546
1376117609871,18.5991
1376117669871,18.6154
1376117729871,18.6673
1376117789871,18.6190
1376117849871,18.6194
1376117909871,18.6135
1376117969871,18.6341
1376118029881,18.6089
1376118089881,18.6371
1376118149881,18.6168
1376118209881,18.5592
1376118269881,18.6340
1376118329881,18.6037
1376118389881,18.6543
1376118449881,18.6201
1376118509881,18.6180
1376118569881,18.6062
1376118629881,18.5279
1376118689881,18.5806
1376118749881,18.5597
1376118809881,18.5789
1376118869881,18.5345
1376118929881,18.6068
1376118989881,18.5706
1376119049881,18.6160
1376119109881,18.5686
1376119169881,18.5918
1376119229881,18.6225
1376119289881,18.5937
1376119349881,18.5995
1376119409881,18.6377
1376119469881,18.5828
1376119529881,18.6150
1376119589881,18.5408
1376119649881,18.5784
1376119709881,18.6273
1376119769881,18.5479
1376119829881,18.6031
1376119889881,18.5521
1376119949881,18.6060
1376120009881,18.5246
1376120069881,18.6293
1376120129881,18.5916
1376120189881,18.5693
1376120249881,18.6049
1376120309881,18.5751
1376120369881,18.5401
1376120429881,18.6144
1376120489881,18.5892
1376120549881,18.6008
1376120609881,18.6387
1376120669881,18.6434
1376120729881,18.6197
1376120789881,18.6136
1376120849881,18.7113
1376120909881,18.6342
1376120969881,18.6277
1376121029881,18.7061
1376121089881,18.6422
1376121149881,18.6557
1376121209881,18.6641
1376121269881,18.6052
1376121329881,18.6602
1376121389881,18.5906
1376121449881,18.6500
1376121509881,18.6050
1376121569881,18.5426
1376121629891,18.5769
1376121689891,18.6364
1376121749891,18.6533
1376121809891,18.6720
1376121869891,18.6254
1376121929891,18.6318
1376121989891,18.6476
1376122049891,18.6140
1376122109891,18.6913
1376122169891,18.6373
1376122229891,18.6323
1376122289891,18.6686
1376122349891,18.6403
1376122409891,18.6458
1376122469891,18.7361
1376122529891,18.4335
1376122589891,18.8194
1376122649891,18.8244
1376122709891,18.9468
1376122769891,18.9896
1376122829891,18.9220
1376122889891,18.8429
1376122949891,18.8773
1376123009891,18.8465
1376123069891,18.8670
1376123129891,18.8232
1376123189891,18.8780
1376123249891,18.7975
1376123309891,18.9723
1376123369891,18.8948
1376123429891,18.8550
1376123489891,18.7987
1376123549891,18.8691
1376123609891,18.7898
1376123669891,18.8515
1376123729891,18.8307
1376123789891,18.8201
1376123849891,18.7971
1376123909891,18.7910
1376123969891,18.7108
1376124029891,18.7659
1376124089891,18.7631
1376124149891,18.7251
1376124209891,18.7884
1376124269891,18.7722
1376124329891,18.8128
1376124389891,18.7412
1376124449891,18.8027
1376124509891,18.8273
1376124569891,18.8223
1376124629891,18.8275
1376124689891,18.7656
1376124749891,18.8032
1376124809891,18.7724
1376124869891,18.7645
1376124929891,18.8388
1376124989891,18.7980
1376125049891,18.8198
1376125109891,18.8867
1376125169891,18.9300
1376125229901,18.8379
1376125289901,18.7943
1376125349901,18.8185
1376125409901,18.7986
1376125469901,18.8298
1376125529901,18.7636
1376125589901,18.7424
1376125649901,18.7892
1376125709901,18.7467
1376125769901,18.7877
1376125829901,18.8773
1376125889901,18.7849
1376125949901,18.8259
1376126009901,18.7855
1376126069901,18.8078
1376126129901,18.8340
1376126189901,18.8047
1376126249901,18.8696
1376126309901,18.8461
1376126369901,18.8805
1376126429901,18.8097
1376126489901,18.8768
1376126549901,18.9635
1376126609901,18.8667
1376126669901,18.8852
1376126729901,18.9449
1376126789901,18.8594
1376126849901,18.9054
1376126909901,18.8810
1376126969901,18.8509
1376127029901,18.8934
1376127089901,18.8612
1376127149901,18.8940
1376127209901,18.8607
1376127269901,18.8684
1376127329901,18.8784
1376127389901,18.7943
1376127449901,18.8735
1376127509901,18.8990
1376127569901,18.8116
1376127629901,18.8401
1376127689901,18.8559
1376127749901,18.8699
1376127809901,18.8618
1376127869901,18.8919
1376127929901,18.7954
1376127989901,18.9433
1376128049901,18.8734
1376128109901,18.9140
1376128169901,18.8979
1376128229901,18.9336
1376128289901,18.7784
1376128349901,18.8236
1376128409901,18.8379
1376128469901,18.8056
1376128529901,18.8247
1376128589901,18.8011
1376128649901,18.8118
1376128709901,18.8534
1376128769901,18.7736
1376128829911,18.8473
1376128889911,18.8364
1376128949911,18.8887
1376129009911,18.8353
1376129069911,18.8900
1376129129911,18.8466
1376129189911,18.7308
1376129249911,18.8255
1376129309911,18.7227
1376129369911,18.7818
1376129429911,18.9041
1376129489911,18.8522
1376129549911,18.7552
1376129609911,18.7315
1376129669911,18.7038
1376129729911,18.7343
1376129789911,18.7290
1376129849911,18.6853
1376129909911,18.7408
1376129969911,18.7745
1376130029911,18.7491
1376130089911,18.7011
1376130149911,18.6840
1376130209911,18.6510
1376130269911,18.8202
1376130329911,18.7339
1376130389911,18.7672
1376130449911,18.7972
1376130509911,18.8633
1376130569911,18.7149
1376130629911,18.7616
1376130689911,18.7375
1376130749911,18.7710
1376130809911,18.7478
1376130869911,18.7581
1376130929911,18.7862
1376130989911,18.7201
1376131049911,18.7593
1376131109911,18.7431
1376131169911,18.7863
1376131229911,18.7484
1376131289911,18.7487
1376131349911,18.7188
1376131409911,18.7247
1376131469911,18.7468
1376131529911,18.7388
1376131589911,18.7487
1376131649911,18.7423
1376131709911,18.7472
1376131769911,18.7101
1376131829911,18.7495
1376131889911,18.6811
1376131949911,18.6862
1376132009911,18.7826
1376132069911,18.7187
1376132129911,18.7122
1376132189911,18.6692
1376132249911,18.6624
1376132309911,18.7332
1376132369911,18.7193
1376132429921,18.7539
1376132489921,18.6860
1376132549921,18.7229
1376132609921,18.7071
1376132669921,18.7035
1376132729921,18.6810
1376132789921,18.7623
1376132849921,18.6588
1376132909921,18.7160
1376132969921,18.6751
1376133029921,18.6820
1376133089921,18.6810
1376133629921,18.6491
1376133689922,18.6509
1376133749922,18.7113
1376133809921,18.6894
1376133869921,18.7055
1376133929921,18.6879
1376133989921,18.7747
1376134049921,18.6886
1376134109921,18.7172
1376134169921,18.6767
1376134229921,18.7263
1376134289921,18.7065
1376134349921,18.6927
1376134409921,18.7125
1376134469921,18.7399
1376134529921,18.7002
1376134589921,18.6548
1376134649921,18.6896
1376134709921,18.7129
1376134769921,18.7340
1376134829921,18.7546
1376134889921,18.6909
1376134949921,18.6667
1376135009922,18.6401
1376135069922,18.7067
1376135129921,18.6258
1376135189921,18.6722
1376135249921,18.6159
1376135309921,18.6556
1376135369921,18.7215
1376135429921,18.7643
1376135489921,18.7601
1376135549921,18.7638
1376135609921,18.8079
1376135669921,18.8066
1376135729921,18.7290
1376135789921,18.6917
1376135849921,18.7573
1376135909921,18.7704
1376135969921,18.7056
1376136029932,18.7478
1376136089932,18.6033
1376136149932,18.6913
1376136209932,18.6271
1376136269932,18.6724
1376136329932,18.6530
1376136389932,18.6342
1376136449932,18.6613
1376136509932,18.6439
1376136569932,18.6495
1376136629932,18.6603
1376136689932,18.7092
1376136749932,18.6932
1376136809932,18.7738
1376136869932,18.7957
1376136929932,18.7295
1376136989932,18.8008
1376137049932,18.7438
1376137109932,18.8194
1376137169932,18.8644
1376137229932,18.8982
1376137289932,18.8781
1376137349932,18.9086
1376137409932,18.8630
1376137469932,18.8733
1376137529932,18.8552
1376137589932,18.8396
1376137649932,18.8474
1376137709932,18.7847
1376137769932,18.8743
1376137829932,18.8210
1376137889932,18.7859
1376137949932,18.7876
1376138009932,18.7903
1376138069932,18.8145
1376138129932,18.7751
1376138189932,18.8661
1376138249932,18.8035
1376138309932,18.7813
1376138369932,18.8561
1376138429932,18.7652
1376138489932,18.7738
1376138549932,18.8294
1376138609932,18.8114
1376138669932,18.8013
1376138729932,18.7986
1376138789932,18.7935
1376138849932,18.8331
1376138909932,18.7429
1376138969932,18.7594
1376139029932,18.7253
1376139089932,18.7883
1376139149932,18.7244
1376139209932,18.7359
1376139269932,18.7680
1376139329932,18.7844
1376139389932,18.7401
1376139449932,18.7912
1376139509932,18.7508
1376139569932,18.8366
1376139629942,18.9120
1376139689942,18.8291
1376139749942,18.9720
1376139809942,18.8807
1376139869942,18.8845
1376139929942,18.8726
1376139989942,18.8721
1376140049942,18.8145
1376140109942,18.8101
1376140169942,18.8269
1376140229942,18.8513
1376140289942,18.8345
1376140349942,18.8900
1376140409942,18.8289
1376140469942,18.8037
1376140529942,18.8417
1376140589942,18.7935
1376140649942,18.7925
1376140709942,18.8704
1376140769942,18.8727
1376140829942,18.9087
1376140889942,18.9060
1376140949942,18.8692
1376141009942,18.7584
1376141069942,18.8323
1376141129942,18.8441
1376141189942,18.7424
1376141249942,18.7776
1376141309942,18.7866
1376141369942,18.8169
1376141429942,18.7687
1376141489942,18.8201
1376141549942,18.7729
1376141609942,18.7924
1376141669942,18.8338
1376141729942,18.7352
1376141789942,18.7832
1376141849942,18.7765
1376141909942,18.7780
1376141969942,18.7506
1376142029942,18.7782
1376142089942,18.7768
1376142149942,18.7927
1376142209942,18.7446
1376142269942,18.7039
1376142329942,18.7852
1376142389942,18.7495
1376142449942,18.8327
1376142509942,18.7663
1376142569942,18.8094
1376142629942,18.8208
1376142689942,18.8153
1376142749942,18.8414
1376142809942,18.7994
1376142869942,18.7971
1376142929942,18.7976
1376142989942,18.8265
1376143049942,18.8156
1376143109942,18.8043
1376143169942,18.7969
1376143229953,18.8079
1376143289953,18.8307
1376143349953,18.8372
1376143409953,18.8188
1376143469953,18.8364
1376143529953,18.8393
1376143589953,18.8332
1376143649953,18.8099
1376143709953,18.7584
1376143769953,18.8239
1376143829953,18.8140
1376143889953,18.7508
1376143949953,18.8367
1376144009953,18.7792
1376144069953,18.7358
1376144129953,18.8512
1376144189953,18.8132
1376144249953,18.7629
1376144309953,18.7899
1376144369953,18.7493
1376144429953,18.7946
1376144489953,18.8457
1376144549953,18.7972
1376144609953,18.8477
1376144669953,18.7941
1376144729953,18.7984
1376144789953,18.8045
1376144849953,18.7931
1376144909953,18.7873
1376144969953,18.7680
1376145029953,18.8018
1376145089953,18.8326
1376145149953,18.8337
1376145209953,18.7723
1376145269953,18.8318
1376145329953,18.7822
1376145389953,18.7955
1376145449953,18.8316
1376145509953,18.7797
1376145569953,18.8230
1376145629953,18.8723
1376145689953,18.8672
1376145749953,18.8658
1376145809953,18.8124
1376145869953,18.8166
1376145929953,18.8015
1376145989953,18.8787
1376146049953,18.8873
1376146109953,18.8389
1376146169953,18.8882
1376146229953,18.9255
1376146289953,18.8638
1376146349953,18.9519
1376146409953,18.9857
1376146469953,18.8770
1376146529953,18.9860
1376146589953,18.9065
1376146649953,18.9061
1376146709953,18.9056
1376146769953,18.9563
1376146829964,18.8677
1376146889964,18.8936
1376146949964,18.9111
1376147009964,18.8679
1376147069964,18.9257
1376147129964,18.8241
1376147189964,18.8955
1376147249964,18.8904
1376147309964,18.8885
1376147369964,18.8881
1376147429964,18.9167
1376147489964,18.8804
1376147549964,18.8664
1376147609964,18.9108
1376147669964,19.0253
1376147729964,18.8745
1376147789964,18.8991
1376147849964,18.8473
1376147909964,18.8283
1376147969964,18.8320
1376148029964,18.8919
1376148089964,18.9217
1376148149964,18.9105
1376148209964,18.7975
1376148269964,18.8277
1376148329964,18.7818
1376148389964,18.8163
1376148449964,18.8607
1376148509964,18.8240
1376148569964,18.8422
1376148629964,18.8788
1376148689964,18.9145
1376148749964,18.7756
1376148809964,18.8008
1376148869964,18.8758
1376148929964,18.8683
1376148989964,18.8703
1376149049964,18.8731
1376149109964,18.8435
1376149169964,18.8850
1376149229964,18.8385
1376149289964,18.8493
1376149349964,18.8428
1376149409964,18.8348
1376149469964,18.8266
1376149529964,18.8859
1376149589964,18.8267
1376149649964,18.7670
1376149709964,18.8172
1376149769964,18.8585
1376149829964,18.8905
1376149889964,18.8748
1376149949964,18.8639
1376150009964,18.8217
1376150069964,18.8507
1376150129964,18.8003
1376150189964,18.8420
1376150249964,18.8265
1376150309964,18.9094
1376150369964,18.8683
1376150429975,18.9523
1376150489975,18.9091
1376150549975,18.9146
1376150609975,18.9543
1376150669975,18.9139
1376150729975,18.8996
1376150789975,18.9299
1376150849975,18.9132
1376150909975,18.8843
1376150969975,18.8331
1376151029975,18.8380
1376151089975,18.9227
1376151149975,18.9283
1376151209975,18.9088
1376151269975,18.9161
1376151329975,18.9569
1376151389975,18.9137
1376151449975,18.8934
1376151509975,18.8870
1376151569975,18.9392
1376151629975,18.9475
1376151689975,18.9340
1376151749975,18.9434
1376151809975,18.9027
1376151869975,18.9334
1376151929975,18.8893
1376151989975,18.9186
1376152049975,18.9074
1376152109975,18.8920
1376152169975,18.9049
1376152229975,18.8949
1376152289975,18.9164
1376152349975,18.8815
1376152409975,18.8979
1376152469975,18.8773
1376152529975,18.8787
1376152589975,18.8941
1376152649975,18.8510
1376152709975,18.8980
1376152769975,18.9506
1376152829975,18.8723
1376152889975,18.8849
1376152949975,18.8294
1376153009975,18.8772
1376153069975,18.8064
1376153129975,18.8140
1376153189975,18.8373
1376153249975,18.8685
1376153309975,18.7431
1376153369975,18.8905
1376153429975,18.8399
1376153489975,18.8046
1376153549975,18.7967
1376153609975,18.8042
1376153669975,18.7819
1376153729975,18.8352
1376153789975,18.8503
1376153849975,18.7998
1376153909975,18.7639
1376153969975,18.8986
1376154029987,18.8707
1376154089987,18.8488
1376154149987,18.9075
1376154209987,18.9573
1376154269987,18.9247
1376154329987,19.0186
1376154389987,18.9063
1376154449987,18.9545
1376154509987,18.9245
1376154569987,18.9338
1376154629987,18.8872
1376154689987,18.8812
1376154749987,18.8866
1376154809987,18.8618
1376154869987,18.8387
1376154929987,18.8983
1376154989987,18.8262
1376155049987,18.8561
1376155109987,18.8410
1376155169987,18.8475
1376155229987,18.8289
1376155289987,18.8101
1376155349987,18.7912
1376155409987,18.8193
1376155469987,18.8276
1376155529987,18.8067
1376155589987,18.8640
1376155649987,18.8187
1376155709987,18.8415
1376155769987,18.8457
1376155829987,18.9478
1376155889987,18.8687
1376155949987,18.7863
1376156009987,18.8261
1376156069987,18.7729
1376156129987,18.8153
1376156189987,18.8260
1376156249987,18.7883
1376156309987,18.8276
1376156369987,18.7872
1376156429987,18.7448
1376156489987,18.8078
1376156549987,18.7710
1376156609987,18.7653
1376156669987,18.7737
1376156729987,18.8227
1376156789987,18.8250
1376156849987,18.8143
1376156909987,18.7813
1376156969987,18.8850
1376157029987,18.7756
1376157089987,18.7952
1376157149987,18.8542
1376157209987,18.8131
1376157269987,18.8089
1376157329987,18.8422
1376157389987,18.8425
1376157449987,18.8669
1376157509987,18.8381
1376157569987,18.8722
1376157629998,18.8396
1376157689998,18.8681
1376157749998,18.8468
1376157809998,18.8244
1376157869998,18.8993
1376157929998,18.8626
1376157989998,18.8276
1376158049999,18.7947
1376158109999,18.8379
1376158169999,18.7932
1376158229998,18.8221
1376158289998,18.8592
1376158349998,18.7585
1376158409998,18.7549
1376158469998,18.7856
1376158529998,18.8173
1376158589998,18.8286
1376158649998,18.7996